{"data":{"norad_id":44709,"epoch":"2026-04-30T20:24:33.185376Z","epoch_age_seconds":2158004,"freshness":"OLD","line1":"1 44709U 19073A   26120.85038409 -.00000212  00000+0  00000+0 0  9996","line2":"2 44709  54.8842 281.4069 0042404 188.8195 170.9972  1.00251230 23982","mean_motion":1.0025123,"eccentricity":0.0042404,"inclination_deg":54.8842,"raan_deg":281.4069,"arg_perigee_deg":188.8195,"mean_anomaly_deg":170.9972,"bstar":0,"rev_number":2398,"period_min":1436.3913540013,"perigee_km":35613.538490305,"apogee_km":35971.178026493,"semimajor_km":42170.495258399,"source":"CELESTRAK","updated_at":"2026-05-25T13:38:24.222504Z"}}